FW3260 Weather Reports


Display with metric or nautical units.
time (UTC)temp
F
wind
direction
speed
MPH
gust
MPH
rain 1hr
in
rain 24hr
in
rain mn
in
humidity
%
barometer
mb
20260831213020 76 0.0 0.0 0.00 0.00 0.00 60 1019.5
20260831212019 76 68 1.0 3.0 0.00 0.00 0.00 60 1019.6
20260831211040 76 0.0 2.0 0.00 0.00 0.00 60 1019.6
20260831210019 77 315 1.0 3.0 0.00 0.00 0.00 58 1019.6
20260831205019 77 0.0 0.0 0.00 0.00 0.00 58 1019.6
20260831204020 77 0.0 2.0 0.00 0.00 0.00 54 1019.8
20260831203019 78 293 1.0 3.0 0.00 0.00 0.00 55 1019.7
20260831202059 77 293 1.0 3.0 0.00 0.00 0.00 55 1019.6
20260831201019 78 180 1.0 3.0 0.00 0.00 0.00 53 1019.7
20260831200019 76 45 1.0 2.0 0.00 0.00 0.00 56 1019.7
20260831195020 77 293 1.0 3.0 0.00 0.00 0.00 53 1019.9
20260831194019 77 293 1.0 3.0 0.00 0.00 0.00 55 1019.8
20260831193039 77 315 2.0 4.0 0.00 0.00 0.00 54 1020.0
20260831192019 77 315 1.0 3.0 0.00 0.00 0.00 58 1020.2
20260831191019 77 315 2.0 5.0 0.00 0.00 0.00 55 1020.3
20260831190019 76 113 1.0 2.0 0.00 0.00 0.00 56 1020.2
20260831185019 76 315 1.0 2.0 0.00 0.00 0.00 58 1020.3
20260831184059 76 338 1.0 3.0 0.00 0.00 0.00 58 1020.4
20260831183019 77 315 2.0 5.0 0.00 0.00 0.00 56 1020.5
20260831182019 76 270 1.0 3.0 0.00 0.00 0.00 58 1020.6
20260831181100 76 293 2.0 6.0 0.00 0.00 0.00 57 1020.7
20260831180019 76 315 2.0 4.0 0.00 0.00 0.00 59 1020.6
20260831175019 75 315 1.0 2.0 0.00 0.00 0.00 58 1020.6
20260831174019 75 338 1.0 3.0 0.00 0.00 0.00 58 1020.8
20260831173019 75 180 2.0 4.0 0.00 0.00 0.00 55 1020.7
20260831172019 75 0.0 3.0 0.00 0.00 0.00 52 1020.8
20260831171039 76 270 1.0 3.0 0.00 0.00 0.00 53 1020.9
20260831170039 76 338 2.0 3.0 0.00 0.00 0.00 52 1020.9
20260831165019 75 225 1.0 3.0 0.00 0.00 0.00 53 1021.1
20260831164019 76 248 1.0 3.0 0.00 0.00 0.00 55 1021.2
20260831163019 76 270 1.0 3.0 0.00 0.00 0.00 49 1021.3
20260831162019 75 90 3.0 6.0 0.00 0.00 0.00 55 1021.3
20260831161019 75 90 2.0 4.0 0.00 0.00 0.00 52 1021.5
20260831160039 75 90 2.0 7.0 0.00 0.00 0.00 55 1021.3
20260831155019 74 45 1.0 3.0 0.00 0.00 0.00 56 1021.6
20260831154019 73 315 2.0 4.0 0.00 0.00 0.00 54 1021.6
20260831153510 73 90 3.0 6.0 0.00 0.00 0.00 56 1021.8
20260831151518 74 248 2.0 7.0 0.00 0.00 0.00 55 1022.0
20260831150519 73 90 2.0 4.0 0.00 0.00 0.00 55 1021.7
20260831145518 72 90 2.0 5.0 0.00 0.00 0.00 59 1021.7
20260831144519 72 90 2.0 5.0 0.00 0.00 0.00 61 1021.8
20260831143519 72 90 2.0 6.0 0.00 0.00 0.00 58 1021.9
20260831142519 72 90 2.0 7.0 0.00 0.00 0.00 60 1021.7
20260831141519 71 293 1.0 3.0 0.00 0.00 0.00 62 1021.9
20260831140518 70 90 2.0 6.0 0.00 0.00 0.00 65 1021.8
20260831135519 70 90 2.0 5.0 0.00 0.00 0.00 63 1021.8
20260831134539 70 90 1.0 4.0 0.00 0.00 0.00 66 1021.8
20260831133518 70 225 1.0 6.0 0.00 0.00 0.00 69 1021.7
20260831132518 69 90 1.0 4.0 0.00 0.00 0.00 68 1021.5
20260831131518 68 90 3.0 7.0 0.00 0.00 0.00 68 1021.5
20260831130519 68 90 3.0 8.0 0.00 0.00 0.00 69 1021.7
20260831125558 68 113 2.0 5.0 0.00 0.00 0.00 74 1021.5
20260831124519 68 158 1.0 4.0 0.00 0.00 0.00 77 1021.6
20260831123518 67 90 2.0 5.0 0.00 0.00 0.00 81 1021.6
20260831122518 66 90 2.0 6.0 0.00 0.00 0.00 84 1021.7
20260831121538 64 0.0 2.0 0.00 0.00 0.00 89 1021.6
20260831120538 63 90 2.0 6.0 0.00 0.00 0.00 91 1021.3
20260831115518 61 0.0 0.0 0.00 0.00 0.00 93 1021.2
20260831114518 61 0.0 0.0 0.00 0.00 0.00 93 1021.1
20260831113518 61 0.0 1.0 0.00 0.00 0.00 93 1021.1
20260831112518 60 0.0 0.0 0.00 0.00 0.00 93 1020.9
20260831111519 60 0.0 0.0 0.00 0.00 0.00 93 1020.8
20260831110538 60 0.0 0.0 0.00 0.00 0.00 93 1020.8
20260831105518 60 0.0 1.0 0.00 0.00 0.00 92 1020.8
20260831104518 60 0.0 0.0 0.00 0.00 0.00 92 1020.6
20260831103518 60 0.0 0.0 0.00 0.00 0.00 92 1020.6
20260831102518 60 0.0 0.0 0.00 0.00 0.00 91 1020.4
20260831101539 60 0.0 0.0 0.00 0.00 0.00 91 1020.3
20260831100538 61 0.0 0.0 0.00 0.00 0.00 91 1020.3
20260831095518 61 0.0 0.0 0.00 0.00 0.00 91 1020.2
20260831094518 61 0.0 0.0 0.00 0.00 0.00 91 1020.1
20260831093518 61 0.0 0.0 0.00 0.00 0.00 91 1020.0
20260831092518 62 0.0 0.0 0.00 0.00 0.00 91 1019.9
20260831091518 62 0.0 0.0 0.00 0.00 0.00 91 1019.9
20260831090518 62 0.0 0.0 0.00 0.00 0.00 91 1019.8
20260831085538 62 0.0 0.0 0.00 0.00 0.00 91 1019.8
20260831084518 63 0.0 0.0 0.00 0.00 0.00 91 1019.7
20260831083538 63 0.0 0.0 0.00 0.00 0.00 91 1019.7
20260831082518 63 0.0 2.0 0.00 0.00 0.00 91 1019.5
20260831081518 63 0.0 0.0 0.00 0.00 0.00 91 1019.5
20260831080538 63 0.0 0.0 0.00 0.00 0.00 91 1019.5
20260831075517 63 0.0 0.0 0.00 0.00 0.00 92 1019.4
20260831074518 63 0.0 0.0 0.00 0.00 0.00 91 1019.3
20260831073518 63 0.0 0.0 0.00 0.00 0.00 91 1019.1
20260831072518 63 0.0 0.0 0.00 0.00 0.00 91 1019.1
20260831071518 63 0.0 0.0 0.00 0.00 0.00 91 1019.0
20260831070558 63 0.0 0.0 0.00 0.00 0.00 91 1018.9
20260831065518 64 0.0 0.0 0.00 0.00 0.00 91 1018.9
20260831064518 64 0.0 1.0 0.00 0.00 0.00 91 1019.0
20260831063518 64 0.0 2.0 0.00 0.00 0.00 91 1019.1
20260831062518 64 0.0 0.0 0.00 0.00 0.00 91 1019.2
20260831061518 64 0.0 0.0 0.00 0.00 0.00 91 1019.1
20260831060518 65 0.0 0.0 0.00 0.00 0.00 90 1019.0
20260831055517 65 0.0 0.0 0.00 0.00 0.00 90 1018.9
20260831054518 65 0.0 0.0 0.00 0.00 0.00 90 1018.9
20260831053517 66 0.0 0.0 0.00 0.00 0.00 90 1018.8
20260831052518 66 0.0 0.0 0.00 0.00 0.00 89 1018.7
20260831051517 66 0.0 0.0 0.00 0.00 0.00 89 1018.7
20260831050518 66 0.0 0.0 0.00 0.00 0.00 89 1018.6
20260831045519 67 0.0 0.0 0.00 0.00 0.00 89 1018.6
20260831044519 67 0.0 0.0 0.00 0.00 0.00 88 1018.6
20260831043519 68 0.0 0.0 0.00 0.00 0.00 88 1018.4
20260831042519 68 0.0 1.0 0.00 0.00 0.00 88 1018.4
20260831041520 68 0.0 0.0 0.00 0.00 0.00 88 1018.4
20260831040519 69 0.0 0.0 0.00 0.00 0.00 87 1018.4
20260831035518 69 0.0 1.0 0.00 0.00 0.00 87 1018.4
20260831034538 69 0.0 0.0 0.00 0.00 0.00 87 1018.3
20260831033518 69 0.0 0.0 0.00 0.00 0.00 87 1018.2
20260831032518 70 248 1.0 3.0 0.00 0.00 0.00 86 1018.2
20260831031518 70 0.0 0.0 0.00 0.00 0.00 86 1018.2
20260831030518 71 225 2.0 4.0 0.00 0.00 0.00 85 1018.2
20260831025518 71 225 2.0 6.0 0.00 0.00 0.00 84 1018.3
20260831024518 72 293 1.0 4.0 0.00 0.00 0.00 83 1018.3
20260831023518 73 225 1.0 3.0 0.00 0.00 0.00 82 1018.4
20260831022518 73 248 1.0 4.0 0.00 0.00 0.00 80 1018.5
20260831021518 73 225 2.0 6.0 0.00 0.00 0.00 78 1018.4
20260831020518 73 248 1.0 2.0 0.00 0.00 0.00 77 1018.2
20260831015538 73 0.0 2.0 0.00 0.00 0.00 76 1018.3
20260831014538 73 293 1.0 3.0 0.00 0.00 0.00 76 1017.9
20260831013518 74 0.0 3.0 0.00 0.00 0.00 76 1017.9
20260831012517 74 248 1.0 3.0 0.00 0.00 0.00 75 1017.9
20260831011517 74 315 1.0 3.0 0.00 0.00 0.00 75 1017.8
20260831010518 74 270 1.0 3.0 0.00 0.00 0.00 74 1017.8
20260831005517 74 0.0 2.0 0.00 0.00 0.00 73 1017.8
20260831004518 74 293 1.0 7.0 0.00 0.00 0.00 73 1017.6
20260831003519 74 338 1.0 5.0 0.00 0.00 0.00 73 1017.4
20260831002519 74 338 2.0 4.0 0.00 0.00 0.00 73 1017.3
20260831001539 74 315 2.0 7.0 0.00 0.00 0.00 72 1017.4
20260831000519 74 293 1.0 4.0 0.00 0.00 0.00 72 1017.4
20260830235539 75 315 1.0 3.0 0.00 0.00 0.00 71 1017.2
20260830234518 75 315 1.0 4.0 0.00 0.00 0.00 71 1017.2
20260830233519 75 315 1.0 3.0 0.00 0.00 0.00 70 1017.2
20260830232519 75 293 2.0 4.0 0.00 0.00 0.00 69 1017.2
20260830231539 76 315 1.0 3.0 0.00 0.00 0.00 68 1017.2
20260830230519 76 0.0 4.0 0.00 0.00 0.00 67 1017.2
20260830225540 76 293 2.0 4.0 0.00 0.00 0.00 67 1017.2
20260830224519 77 315 1.0 3.0 0.00 0.00 0.00 66 1017.4
20260830223519 77 315 2.0 6.0 0.00 0.00 0.00 65 1017.4
20260830222519 77 315 2.0 4.0 0.00 0.00 0.00 64 1017.5
20260830221600 77 315 2.0 5.0 0.00 0.00 0.00 62 1017.4
20260830220519 77 338 1.0 4.0 0.00 0.00 0.00 61 1017.5
20260830215519 77 0 1.0 4.0 0.00 0.00 0.00 61 1017.5
20260830214519 78 315 2.0 7.0 0.00 0.00 0.00 60 1017.5